Tracking 19817 objects as of 18-Aug-2019
HD Live streaming from Space Station
objects crossing your sky now

FENGYUN 2D DEB

Track FENGYUN 2D DEB now!


NORAD ID: 33458
Int'l Code: 2006-053D
Perigee: 35,516.3 km
Apogee: 36,084.3 km
Inclination: 7.2 °
Period: 1,436.4 minutes
Semi major axis: 42171 km
RCS: 0.003 m2 (small)
Launch date: December 8, 2006
Source: People's Republic of China (PRC)
Launch site: Xichang Space Center, China (XSC)

Note: This is SATELLITE DEBRIS
aabbcc
Your satellite tracking list
Your tracking list is empty




NASA's NSSDC Master Catalog

Two Line Element Set (TLE):
1 33458U 06053D   19214.93392501 -.00000156  00000-0  00000+0 0  9998
2 33458   7.2476  53.9651 0067347 354.9479 318.5991  1.00248303 40155
Source of the keplerian elements: AFSPC